Dewpoint
45 47 49 50 62 64 64 64 63 64 65 65 65 65 65 66 66 66 66 65 65 64 63 61 59 58 56 55 54 51 46 47
43 46 48 48 48 49 52 58 61 62 57 58 59 59 60 61 64 65 64 65 64 64 64 62 60 58 57 56 55 53 49 49
43 45 46 47 48 47 48 50 50 51 52 55 59 59 58 59 60 61 63 63 63 64 63 63 61 59 58 56 55 54 51 51
40 43 45 46 46 46 46 48 50 50 51 50 50 50 49 50 51 54 55 57 59 60 60 60 60 60 58 57 56 54 51 50
36 40 41 44 44 43 43 44 48 50 49 47 45 45 44 48 50 52 53 53 55 56 56 57 57 58 58 58 56 54 53 50
35 35 38 42 42 42 41 41 43 46 46 47 47 46 48 49 49 49 49 50 51 52 54 55 55 55 56 57 56 54 54 53
27 29 35 37 38 40 40 39 40 40 41 43 43 43 43 44 45 45 46 48 49 50 51 53 53 53 54 54 55 55 53 53
24 28 34 32 35 41 40 39 38 38 38 38 40 41 42 42 43 43 43 43 44 43 48 49 51 51 51 51 52 53 54 52
26 30 29 29 34 36 35 33 32 36 37 38 39 39 41 41 40 41 41 40 40 43 46 48 49 49 48 49 50 50 51 53
28 27 28 30 35 32 31 30 33 35 35 36 37 38 39 39 40 41 41 43 43 45 47 47 47 47 47 47 48 47 48 49
27 26 29 32 32 32 31 32 32 34 36 37 38 39 40 41 41 41 41 43 44 46 48 46 46 45 45 46 46 46 46 47
24 25 29 32 29 27 29 32 34 35 37 38 39 39 40 41 41 40 41 43 44 45 45 44 44 44 44 44 44 45 45 47
21 27 30 27 25 27 29 32 35 37 38 39 39 40 41 40 39 39 41 42 43 44 45 44 43 43 42 43 43 43 43 43
21 27 26 27 26 28 30 32 34 35 38 39 39 39 38 38 38 40 43 43 44 43 42 41 42 42 42 41 40 40 40 40
24 24 24 25 27 30 32 31 32 38 39 38 37 37 37 37 38 39 41 42 41 40 40 41 41 40 40 40 40 40 41 42
23 24 25 25 26 27 28 31 38 37 37 36 36 36 37 36 36 38 40 39 39 40 40 39 39 39 39 39 39 39 40 41
23 23 24 24 25 27 31 37 37 37 36 35 36 36 36 35 35 35 36 37 38 38 37 36 36 36 37 37 38 39 39 39
22 22 23 24 26 32 36 36 36 35 35 34 35 34 34 33 33 35 35 35 35 34 34 34 33 34 36 37 37 37 38 38
21 22 23 25 33 35 35 35 34 34 34 34 33 33 32 33 34 34 34 33 32 32 32 33 32 33 35 35 35 34 34 34
Lifted_Index
4 3 1 -1 -2 -2 -2 -2 -3 -3 -3 -3 -2 -2 -2 -2 -2 -2 -2 -2 -2 -1 -1 -1 -1 -1 -1 -1 -1 -0 0 1
5 4 2 1 -0 -0 -0 -0 -0 -0 -0 -0 -1 -1 -0 -1 -1 -1 -1 -1 -1 -1 -0 -1 -1 -1 -1 -1 -1 -0 -0 0
5 5 4 4 4 4 4 5 5 5 5 4 3 3 4 4 3 3 2 2 2 1 1 1 0 0 -0 -0 -0 -0 -0 -0
6 6 6 6 7 8 8 9 8 9 9 8 8 7 8 8 8 7 6 5 5 4 4 3 2 2 2 1 1 0 -1 -0
6 6 7 8 9 10 10 10 10 10 10 10 10 10 10 10 9 9 8 8 7 7 6 6 5 4 4 3 2 1 0 0
7 7 9 10 10 11 11 11 11 11 11 11 11 11 11 11 10 10 10 10 9 9 8 7 6 6 5 5 4 3 3 2
8 9 10 11 12 12 12 12 12 12 11 11 11 11 11 11 11 11 11 11 11 10 9 9 8 7 7 7 6 6 5 4
9 10 11 12 13 13 13 13 13 12 12 12 12 12 12 13 13 13 13 13 13 12 11 10 10 9 9 9 8 7 5 4
11 12 13 13 14 13 13 13 13 13 13 13 13 14 14 14 15 15 15 15 15 14 13 12 11 10 9 8 7 5 4 3
13 13 14 14 14 14 14 14 14 14 14 14 15 15 15 15 15 16 16 16 15 14 13 12 11 9 8 6 5 4 3 2
13 13 14 14 14 14 14 14 14 14 15 15 15 15 15 15 15 15 16 16 15 14 12 11 9 8 6 5 4 3 2 2
13 13 13 13 13 13 14 14 14 15 15 15 15 15 15 15 15 16 16 15 14 13 11 9 7 7 6 5 4 3 2 2
12 12 13 13 13 13 14 14 15 15 16 15 15 14 15 15 15 16 15 14 13 10 8 7 7 6 6 5 5 4 4 3
11 12 13 13 13 14 14 14 15 15 15 14 14 15 15 15 16 15 14 12 10 8 7 7 7 7 7 7 7 7 7 6
10 11 13 13 13 14 14 14 14 14 14 14 14 15 15 15 15 14 12 10 8 7 7 8 8 9 9 9 9 9 8 8
10 11 12 13 13 13 13 13 13 13 14 14 15 15 15 14 13 12 10 8 8 8 8 9 9 10 11 11 11 10 9 8
10 11 12 12 12 12 13 13 13 13 14 15 15 15 14 12 11 9 8 7 8 8 9 10 10 11 11 12 11 10 9 9
10 11 12 12 12 12 12 13 13 14 15 15 15 13 12 10 9 8 7 7 8 9 10 11 11 12 12 12 12 11 10 9
11 11 12 12 12 12 12 13 14 15 15 15 14 12 10 9 8 8 7 8 9 10 10 11 12 12 13 13 13 12 11 10